Weather History for Grant County, OR

Change the Weather History Date:

Tuesday, February 19, 2013

  Actual Average (KBNO) Record (KBNO)
Temperature  
Mean Temperature 34 °F 30 °F  
Max Temperature 39 °F 40 °F 63 °F (1995)
Min Temperature 28 °F 19 °F -6 °F (1942)
Degree Days  
Heating Degree Days 32 35  
Month to date heating degree days 711  
Since 1 July heating degree days 5224  
Cooling Degree Days 0 0  
Month to date cooling degree days 0  
Year to date cooling degree days 0  
Moisture  
Dew Point 28 °F    
Average Humidity 84    
Maximum Humidity 100    
Minimum Humidity 60    
Precipitation  
Precipitation 0.08 in 0.04 in 0.47 in (1986)
Month to date precipitation 0.67  
Year to date precipitation 1.86  
Sea Level Pressure  
Sea Level Pressure 29.69 in    
Wind  
Wind Speed 2 mph (West)    
Max Wind Speed 8 mph    
Max Gust Speed -    
Visibility 8 miles    
Events Fog , Snow    
T = Trace of Precipitation, MM = Missing Value Source: NWS Daily Summary

Daily Weather History Graph

Daily Weather History Graph

Search for Another Location

Airport:

Trip Planner

Search our weather history database for the weather conditions in past years. The results will help you decide how hot, cold, wet, or windy it might be!

Date:

Astronomy

Feb. 19, 2013 Rise Set
Actual Time 6:49 AM PST 5:30 PM PST
Civil Twilight 6:19 AM PST 6:00 PM PST
Nautical Twilight 5:45 AM PST 6:34 PM PST
Astronomical Twilight 5:12 AM PST 7:08 PM PST
Moon 11:59 AM PST (2/19) 2:32 AM PST (2/19)
Length of Visible Light 11h 41m
Length of Day
10h 41m
Waxing Gibbous, 68% of the Moon is Illuminated
Feb 19
Waxing Gibbous
Feb 25
Full
Mar 4
Last Quarter
Mar 11
New
Mar 19
First Quarter

Hourly Weather History & Observations

Time (PST) Temp. Windchill Dew Point Humidity Pressure Visibility Wind Dir Wind Speed Gust Speed Precip Events Conditions
12:15 AM 32.0 °F - 32.0 °F 100% 29.68 in 0.2 mi Calm Calm - N/A Snow Light Snow
12:35 AM 32.0 °F - 32.0 °F 100% 29.67 in 1.5 mi Calm Calm - N/A Snow Light Snow
12:55 AM 32.0 °F 27.5 °F 32.0 °F 100% 29.67 in 1.8 mi ENE 4.6 mph - 0.01 in Snow Light Snow
1:15 AM 32.0 °F 28.7 °F 32.0 °F 100% 29.67 in 1.2 mi ENE 3.5 mph - 0.02 in Snow Light Snow
1:35 AM 32.0 °F - 32.0 °F 100% 29.66 in 1.2 mi Calm Calm - 0.02 in Snow Light Snow
1:55 AM 32.0 °F - 32.0 °F 100% 29.66 in 1.2 mi Calm Calm - 0.02 in Snow Light Snow
2:15 AM 32.0 °F - 32.0 °F 100% 29.65 in 1.5 mi Calm Calm - N/A Snow Light Snow
2:35 AM 32.0 °F - 32.0 °F 100% 29.65 in 2.5 mi Calm Calm - N/A Snow Light Snow
2:55 AM 32.0 °F 25.6 °F 32.0 °F 100% 29.64 in 1.5 mi West 6.9 mph - N/A Snow Light Snow
3:15 AM 32.0 °F 26.4 °F 30.2 °F 93% 29.64 in 4.0 mi SW 5.8 mph - N/A Snow Light Snow
3:55 AM 32.0 °F 27.5 °F 30.2 °F 93% 29.64 in 4.0 mi SW 4.6 mph - N/A Snow Light Snow
4:15 AM 32.0 °F - 30.2 °F 93% 29.64 in 10.0 mi Calm Calm - 0.03 in   Overcast
4:35 AM 32.0 °F - 28.4 °F 87% 29.64 in 10.0 mi Calm Calm - 0.05 in   Overcast
4:55 AM 32.0 °F - 30.2 °F 93% 29.64 in 10.0 mi Calm Calm - 0.05 in   Overcast
5:15 AM 30.2 °F 26.7 °F 28.4 °F 93% 29.64 in 10.0 mi WSW 3.5 mph - N/A   Overcast
5:35 AM 30.2 °F - 28.4 °F 93% 29.64 in 10.0 mi Calm Calm - N/A   Overcast
5:55 AM 30.2 °F 25.4 °F 28.4 °F 93% 29.64 in 10.0 mi West 4.6 mph - N/A   Overcast
6:15 AM 30.2 °F - 28.4 °F 93% 29.64 in 10.0 mi Calm Calm - N/A   Overcast
6:35 AM 30.2 °F 26.7 °F 28.4 °F 93% 29.64 in 0.5 mi WNW 3.5 mph - N/A Fog Light Freezing Fog
6:55 AM 30.2 °F - 28.4 °F 93% 29.64 in 0.2 mi Calm Calm - N/A Fog Light Freezing Fog
7:15 AM 30.2 °F - 30.2 °F 100% 29.64 in 0.2 mi Calm Calm - N/A Fog Light Freezing Fog
7:35 AM 30.2 °F - 30.2 °F 100% 29.65 in 7.0 mi Calm Calm - N/A   Overcast
7:55 AM 30.2 °F - 28.4 °F 93% 29.65 in 10.0 mi Calm Calm - N/A   Overcast
8:15 AM 30.2 °F 26.7 °F 28.4 °F 93% 29.65 in 10.0 mi SE 3.5 mph - N/A   Overcast
8:35 AM 30.2 °F 26.7 °F 30.2 °F 100% 29.66 in 10.0 mi East 3.5 mph - N/A   Overcast
8:55 AM 30.2 °F 26.7 °F 28.4 °F 93% 29.66 in 10.0 mi East 3.5 mph - N/A   Mostly Cloudy
9:15 AM 30.2 °F 24.3 °F 28.4 °F 93% 29.66 in 10.0 mi East 5.8 mph - N/A   Scattered Clouds
9:35 AM 32.0 °F 26.4 °F 30.2 °F 93% 29.66 in 10.0 mi East 5.8 mph - N/A   Scattered Clouds
9:55 AM 32.0 °F 28.7 °F 30.2 °F 93% 29.66 in 10.0 mi ENE 3.5 mph - N/A   Scattered Clouds
10:15 AM 32.0 °F 28.7 °F 30.2 °F 93% 29.67 in 10.0 mi ENE 3.5 mph - N/A   Scattered Clouds
10:35 AM 32.0 °F - 30.2 °F 93% 29.67 in 10.0 mi Calm Calm - N/A   Scattered Clouds
10:55 AM 32.0 °F - 30.2 °F 93% 29.67 in 10.0 mi Calm Calm - N/A   Scattered Clouds
11:15 AM 32.0 °F - 30.2 °F 93% 29.68 in 10.0 mi Calm Calm - N/A   Scattered Clouds
11:35 AM 33.8 °F - 30.2 °F 87% 29.67 in 10.0 mi Calm Calm - N/A   Scattered Clouds
11:55 AM 33.8 °F - 30.2 °F 87% 29.67 in 10.0 mi Calm Calm - N/A   Mostly Cloudy
12:15 PM 33.8 °F 30.8 °F 30.2 °F 87% 29.67 in 10.0 mi North 3.5 mph - N/A   Mostly Cloudy
12:35 PM 33.8 °F - 30.2 °F 87% 29.67 in 10.0 mi Calm Calm - N/A   Scattered Clouds
12:55 PM 33.8 °F - 30.2 °F 87% 29.67 in 10.0 mi Calm Calm - N/A   Clear
1:15 PM 35.6 °F - 30.2 °F 81% 29.67 in 10.0 mi Calm Calm - N/A   Clear
1:35 PM 35.6 °F - 28.4 °F 75% 29.67 in 10.0 mi Calm Calm - N/A   Clear
1:55 PM 37.4 °F - 28.4 °F 70% 29.67 in 10.0 mi Calm Calm - N/A   Clear
2:15 PM 37.4 °F 34.9 °F 28.4 °F 70% 29.67 in 10.0 mi West 3.5 mph - N/A   Clear
2:35 PM 37.4 °F 34.9 °F 26.6 °F 65% 29.67 in 10.0 mi NW 3.5 mph - N/A   Clear
2:55 PM 39.2 °F 33.6 °F 28.4 °F 65% 29.68 in 10.0 mi NW 8.1 mph - N/A   Scattered Clouds
3:15 PM 37.4 °F 32.1 °F 26.6 °F 65% 29.68 in 10.0 mi North 6.9 mph - N/A   Scattered Clouds
4:35 PM 35.6 °F - 23.0 °F 60% 29.69 in 10.0 mi Calm Calm - N/A   Clear
4:55 PM 35.6 °F 32.8 °F 26.6 °F 70% 29.70 in 10.0 mi SW 3.5 mph - N/A   Clear
5:15 PM 33.8 °F 30.8 °F 24.8 °F 70% 29.71 in 10.0 mi West 3.5 mph - N/A   Clear
5:35 PM 33.8 °F - 23.0 °F 65% 29.72 in 10.0 mi Calm Calm - N/A   Clear
5:55 PM 33.8 °F 28.6 °F 23.0 °F 65% 29.72 in 10.0 mi NNW 5.8 mph - N/A   Clear
6:15 PM 32.0 °F 28.7 °F 21.2 °F 64% 29.73 in 10.0 mi SW 3.5 mph - N/A   Clear
6:55 PM 33.8 °F - 21.2 °F 60% 29.76 in 10.0 mi Calm Calm - N/A   Clear
7:15 PM 33.8 °F - 23.0 °F 65% 29.76 in 10.0 mi Calm Calm - N/A   Clear
7:35 PM 32.0 °F 28.7 °F 21.2 °F 64% 29.77 in 10.0 mi West 3.5 mph - N/A   Clear
7:55 PM 30.2 °F - 23.0 °F 75% 29.77 in 10.0 mi Calm Calm - N/A   Clear
8:15 PM 30.2 °F - 23.0 °F 75% 29.78 in 10.0 mi Calm Calm - N/A   Clear
8:35 PM 30.2 °F - 23.0 °F 75% 29.79 in 10.0 mi Calm Calm - N/A   Clear
8:55 PM 30.2 °F - 23.0 °F 75% 29.80 in 10.0 mi Calm Calm - N/A   Clear
9:15 PM 30.2 °F - 23.0 °F 75% 29.80 in 10.0 mi Calm Calm - N/A   Clear
9:35 PM 30.2 °F - 23.0 °F 75% 29.80 in 10.0 mi Calm Calm - N/A   Clear
10:15 PM 30.2 °F 25.4 °F 23.0 °F 75% 29.81 in 10.0 mi SW 4.6 mph - N/A   Clear
10:35 PM 28.4 °F 23.3 °F 23.0 °F 80% 29.82 in 10.0 mi SW 4.6 mph - N/A   Clear
10:55 PM 30.2 °F - 23.0 °F 75% 29.82 in 10.0 mi Calm Calm - N/A   Clear
11:15 PM 30.2 °F - 23.0 °F 75% 29.83 in 10.0 mi Calm Calm - N/A   Clear
11:35 PM 28.4 °F - 23.0 °F 80% 29.83 in 10.0 mi Calm Calm - N/A   Clear
11:55 PM 28.4 °F - 23.0 °F 80% 29.83 in 10.0 mi Calm Calm - N/A   Clear